Home   Weather   Puerto Vallarta   Past weeks

Flag for Mexico Past Weather in Puerto Vallarta, Jalisco, Mexico — Yesterday and Last 2 Weeks

Now
73 °F

Light rain. Overcast.


Feels Like: 70 °F
Forecast: 62 / 72 °F
Wind: 3 mph from Northeast

Location: Puerto Vallarta / Lic

Current Time: Dec 4, 2016 at 12:19:25 am

Latest Report: Dec 3, 2016 at 11:45 pm


Visibility: 8 mi

Pressure: 29.85 "Hg

Humidity: 94%

Dew Point: 72 °F

Location of Puerto VallartaLocation

Past Weather in Puerto Vallarta — Graph

°F

Puerto Vallarta Temperature Yesterday

Maximum temperature yesterday: 81 °F (at 2:46 pm)
Minimum temperature yesterday: 70 °F (at 2:45 am)
Average temperature yesterday: 75 °F

High & Low Weather Summary for the Past Weeks

 TemperatureHumidityPressure
High93 °F (Dec 2, 8:51 am)100% (Nov 19, 4:50 am)30.02 "Hg (Nov 19, 4:50 am)
Low66 °F (Nov 20, 6:46 am)46% (Nov 20, 12:46 pm)29.19 "Hg (Nov 29, 2:54 am)
Average77 °F81%29.88 "Hg
* Reported Nov 18 10:45 pm — Dec 3 10:46 pm, Puerto Vallarta, Weather by CustomWeather, © 2016

Note: Actual official high and low records may vary slightly from our data, if they occured in-between our weather recording intervals... More about our weather records

Advertising

Puerto Vallarta Weather History for the Previous 24 Hours

Scroll right to see more
 ConditionsComfort  
Time TempWeatherWind HumidityBarometerVisibility
10:46 pm
Sat, Dec 3
73 °FMostly cloudy.No wind94%29.87 "Hg15 mi
9:46 pm77 °FOvercast.13 mph83%29.86 "Hg15 mi
8:49 pm79 °FOvercast.9 mph74%29.85 "Hg15 mi
7:45 pm79 °FMostly cloudy.10 mph70%29.84 "Hg15 mi
4:47 pm79 °FOvercast.9 mph79%29.81 "Hg15 mi
3:53 pm81 °FCloudy.9 mph74%29.81 "Hg15 mi
2:46 pm81 °FBroken clouds.7 mph74%29.81 "Hg15 mi
1:47 pm79 °FPartly sunny.7 mph79%29.85 "Hg15 mi
11:46 am73 °FBroken clouds.6 mph100%29.90 "Hg10 mi
10:45 am77 °FPartly sunny.5 mph79%29.89 "Hg15 mi
9:49 am77 °FScattered clouds.7 mph79%29.89 "Hg15 mi
8:51 am73 °FScattered clouds.6 mph89%29.87 "Hg15 mi
7:49 am70 °FScattered clouds.3 mph94%29.85 "Hg15 mi
6:50 am70 °FSmoke.2 mph94%N/AN/A
5:48 am70 °FClear.5 mph94%29.82 "Hg12 mi
3:45 am70 °FPassing clouds.3 mph100%29.85 "Hg12 mi
2:45 am70 °FPassing clouds.5 mph100%29.85 "Hg12 mi
12:49 am72 °FPassing clouds.2 mph100%29.86 "Hg12 mi
Weather by CustomWeather, © 2016

See weather overviewHow to use our weather pages